Portada
METAR-TAF:

METAR-TAF

Aeroports :

Nioro, Mali

latitud: 15-14N, longitud: 009-21W, altitud: 235 m

Observació

L'informe es va fer fa 1 hora i 31 minuts, a les 15:00 UTC
Vent 6 kt del Est/Nord-Est
Temperatura 36°C
Humitat 8%
Pressió 1011 hPa
Visibilitat 10 km o més
sense núvols per sota de 1500 mi sense presència de cumulonimbus.

METAR: GANR 261500Z 06006KT CAVOK 36/M03 Q1011

Hora: 16:31 (16:31 UTC)


TAF: manca

Observacions i pronòstics meteorològics de més de 4000 aeroports (METAR i TAF).

Les estacions disponibles són els punts grocs i vermells al mapa.

Posi el ratolí al punt desitjat per veure el nom de l'estació.

Feu clic per veure les observacions i els pronòstics meteorològics.

Per canviar el mapa: feu clic els botons verds amb una creu de color negre per apropar; al botó verd amb un guió per allunyar la imatge; o en les fletxes verdes per a mapes adjacents.


METAR-TAF: